| time (UTC) | temp C | wind direction | speed KPH | gust KPH | rain 1hr cm | rain 24hr cm | rain mn cm | humidity % | barometer mb |
| 20260504090126 | 11 | 136 | 4.8 | 0.0 | 0.00 | 0.00 | 0.00 | 85 | 1015.7 |
| 20260504081617 | 11 | 98 | 4.8 | 0.0 | 0.00 | 0.00 | 0.00 | 87 | 1015.5 |
| 20260504081125 | 11 | 127 | 1.6 | 0.0 | 0.00 | 0.00 | 0.00 | 88 | 1015.5 |
| 20260504080628 | 11 | 129 | 1.6 | 0.0 | 0.00 | 0.00 | 0.00 | 88 | 1015.5 |
| 20260504080129 | 11 | 119 | 1.6 | 0.0 | 0.00 | 0.00 | 0.00 | 88 | 1015.4 |
| 20260504013618 | 10 | 303 | 1.6 | 0.0 | 0.00 | 0.00 | 0.00 | 80 | 1014.2 |
| 20260504012611 | 11 | 281 | 0.0 | 0.0 | 0.00 | 0.00 | 0.00 | 81 | 1014.2 |
| 20260504012112 | 11 | 281 | 0.0 | 0.0 | 0.00 | 0.00 | 0.00 | 81 | 1014.3 |
| 20260504011616 | 11 | 281 | 1.6 | 0.0 | 0.00 | 0.00 | 0.00 | 80 | 1014.3 |
| 20260504010631 | 11 | 297 | 1.6 | 0.0 | 0.00 | 0.00 | 0.00 | 80 | 1015.3 |
| 20260504010128 | 11 | 283 | 1.6 | 0.0 | 0.00 | 0.00 | 0.00 | 78 | 1015.4 |
| 20260504005628 | 11 | 283 | 1.6 | 0.0 | 0.00 | 0.00 | 0.00 | 77 | 1015.3 |
| 20260504005129 | 11 | 324 | 1.6 | 0.0 | 0.00 | 0.00 | 0.00 | 79 | 1015.4 |
| 20260504004613 | 11 | 211 | 1.6 | 0.0 | 0.00 | 0.00 | 0.00 | 78 | 1015.4 |
| 20260504004119 | 11 | 229 | 1.6 | 0.0 | 0.00 | 0.00 | 0.00 | 77 | 1015.5 |
| 20260504003622 | 11 | 202 | 3.2 | 0.0 | 0.00 | 0.00 | 0.00 | 77 | 1015.5 |
| 20260504002113 | 11 | 300 | 4.8 | 0.0 | 0.00 | 0.00 | 0.00 | 78 | 1015.5 |
| 20260504001119 | 11 | 298 | 3.2 | 0.0 | 0.00 | 0.00 | 0.00 | 80 | 1015.6 |
| 20260504000621 | 11 | 306 | 1.6 | 0.0 | 0.00 | 0.00 | 0.00 | 81 | 1015.7 |
| 20260504000126 | 11 | 227 | 3.2 | 0.0 | 0.00 | 0.00 | 0.00 | 84 | 1015.7 |
| 20260503235129 | 11 | 316 | 1.6 | 0.0 | 0.00 | 0.00 | 0.38 | 84 | 1015.7 |
| 20260503234612 | 11 | 293 | 1.6 | 0.0 | 0.00 | 0.00 | 0.38 | 84 | 1015.8 |
| 20260503233618 | 11 | 313 | 4.8 | 0.0 | 0.00 | 0.00 | 0.38 | 84 | 1015.7 |
| 20260503233122 | 11 | 315 | 4.8 | 0.0 | 0.00 | 0.00 | 0.38 | 84 | 1015.9 |
| 20260503232630 | 11 | 275 | 4.8 | 0.0 | 0.00 | 0.00 | 0.38 | 86 | 1015.8 |
| 20260503232134 | 11 | 348 | 4.8 | 0.0 | 0.00 | 0.00 | 0.38 | 86 | 1015.8 |
| 20260503231617 | 12 | 325 | 3.2 | 0.0 | 0.00 | 0.00 | 0.38 | 86 | 1015.8 |
| 20260503231116 | 12 | 331 | 1.6 | 0.0 | 0.00 | 0.00 | 0.36 | 87 | 1015.9 |
| 20260503230125 | 12 | 328 | 1.6 | 0.0 | 0.00 | 0.00 | 0.36 | 85 | 1015.9 |
| 20260503225628 | 12 | 334 | 0.0 | 0.0 | 0.00 | 0.00 | 0.36 | 86 | 1015.8 |
| 20260503225128 | 12 | 296 | 0.0 | 0.0 | 0.00 | 0.00 | 0.36 | 86 | 1015.9 |
| 20260503224631 | 12 | 292 | 0.0 | 0.0 | 0.00 | 0.00 | 0.36 | 86 | 1015.8 |
| 20260503224113 | 12 | 157 | 1.6 | 0.0 | 0.00 | 0.00 | 0.36 | 84 | 1015.9 |
| 20260503223617 | 12 | 161 | 3.2 | 0.0 | 0.00 | 0.00 | 0.36 | 84 | 1015.8 |
| 20260503223119 | 12 | 313 | 4.8 | 0.0 | 0.00 | 0.00 | 0.36 | 83 | 1015.7 |
| 20260503222624 | 12 | 322 | 4.8 | 0.0 | 0.00 | 0.00 | 0.36 | 83 | 1015.6 |
| 20260503222127 | 12 | 324 | 3.2 | 0.0 | 0.00 | 0.00 | 0.36 | 83 | 1015.6 |
| 20260503221630 | 12 | 328 | 3.2 | 0.0 | 0.00 | 0.00 | 0.36 | 83 | 1015.7 |
| 20260503221122 | 12 | 345 | 3.2 | 0.0 | 0.00 | 0.00 | 0.36 | 82 | 1015.8 |
| 20260503220623 | 12 | 342 | 1.6 | 0.0 | 0.00 | 0.00 | 0.36 | 82 | 1015.7 |
| 20260503215627 | 12 | 319 | 0.0 | 0.0 | 0.00 | 0.00 | 0.36 | 82 | 1015.7 |
| 20260503215124 | 12 | 319 | 0.0 | 0.0 | 0.00 | 0.00 | 0.36 | 81 | 1015.7 |
| 20260503214627 | 12 | 311 | 1.6 | 0.0 | 0.00 | 0.00 | 0.36 | 80 | 1015.6 |
| 20260503214127 | 12 | 311 | 3.2 | 0.0 | 0.00 | 0.00 | 0.36 | 80 | 1015.6 |
| 20260503213630 | 12 | 329 | 4.8 | 0.0 | 0.00 | 0.00 | 0.36 | 79 | 1015.5 |
| 20260503213113 | 12 | 323 | 3.2 | 0.0 | 0.00 | 0.00 | 0.36 | 78 | 1015.5 |
| 20260503212120 | 13 | 360 | 1.6 | 0.0 | 0.00 | 0.00 | 0.36 | 77 | 1015.5 |
| 20260503211623 | 13 | 355 | 1.6 | 0.0 | 0.00 | 0.00 | 0.36 | 76 | 1015.5 |
| 20260503211125 | 13 | 355 | 1.6 | 0.0 | 0.00 | 0.00 | 0.36 | 72 | 1015.6 |
| 20260503210627 | 13 | 315 | 1.6 | 0.0 | 0.00 | 0.00 | 0.36 | 73 | 1015.5 |
| 20260503210130 | 13 | 330 | 1.6 | 0.0 | 0.00 | 0.00 | 0.36 | 72 | 1015.4 |
| 20260503205620 | 13 | 163 | 0.0 | 0.0 | 0.00 | 0.00 | 0.36 | 73 | 1015.4 |
| 20260503205121 | 13 | 163 | 1.6 | 0.0 | 0.00 | 0.00 | 0.36 | 73 | 1015.4 |
| 20260503204624 | 13 | 235 | 3.2 | 0.0 | 0.00 | 0.00 | 0.36 | 70 | 1015.3 |
| 20260503204122 | 13 | 311 | 4.8 | 0.0 | 0.00 | 0.00 | 0.36 | 69 | 1015.2 |
| 20260503203130 | 13 | 312 | 1.6 | 0.0 | 0.00 | 0.00 | 0.36 | 68 | 1015.2 |
| 20260503202614 | 13 | 292 | 0.0 | 0.0 | 0.00 | 0.00 | 0.36 | 71 | 1015.2 |
| 20260503202116 | 13 | 302 | 0.0 | 0.0 | 0.00 | 0.00 | 0.36 | 71 | 1015.1 |
| 20260503201617 | 13 | 303 | 0.0 | 0.0 | 0.00 | 0.00 | 0.36 | 69 | 1015.0 |
| 20260503201119 | 13 | 302 | 0.0 | 0.0 | 0.00 | 0.00 | 0.36 | 69 | 1015.0 |
| 20260503200623 | 13 | 303 | 1.6 | 0.0 | 0.00 | 0.00 | 0.36 | 69 | 1014.9 |
| 20260503200128 | 13 | 302 | 4.8 | 0.0 | 0.00 | 0.00 | 0.36 | 67 | 1014.9 |
| 20260503195629 | 13 | 328 | 6.4 | 0.0 | 0.00 | 0.00 | 0.36 | 67 | 1014.8 |
| 20260503195113 | 13 | 321 | 6.4 | 0.0 | 0.00 | 0.00 | 0.36 | 67 | 1014.7 |
| 20260503194615 | 13 | 319 | 4.8 | 0.0 | 0.00 | 0.00 | 0.36 | 66 | 1014.7 |
| 20260503194126 | 13 | 317 | 4.8 | 0.0 | 0.00 | 0.00 | 0.36 | 66 | 1014.6 |
| 20260503193628 | 13 | 323 | 4.8 | 0.0 | 0.00 | 0.00 | 0.36 | 65 | 1014.6 |
| 20260503193131 | 13 | 319 | 4.8 | 0.0 | 0.00 | 0.00 | 0.36 | 65 | 1014.7 |
| 20260503192629 | 13 | 311 | 4.8 | 0.0 | 0.00 | 0.00 | 0.36 | 64 | 1014.6 |
| 20260503192130 | 14 | 301 | 3.2 | 0.0 | 0.00 | 0.00 | 0.36 | 64 | 1014.7 |
| 20260503191612 | 14 | 325 | 3.2 | 0.0 | 0.00 | 0.00 | 0.36 | 64 | 1014.6 |
| 20260503190622 | 15 | 324 | 4.8 | 0.0 | 0.00 | 0.00 | 0.36 | 62 | 1014.6 |
| 20260503190128 | 15 | 304 | 3.2 | 0.0 | 0.00 | 0.00 | 0.36 | 62 | 1014.6 |
| 20260503185120 | 15 | 326 | 4.8 | 0.0 | 0.00 | 0.00 | 0.36 | 60 | 1014.4 |
| 20260503184622 | 16 | 321 | 3.2 | 0.0 | 0.00 | 0.00 | 0.36 | 59 | 1014.4 |
| 20260503184124 | 16 | 314 | 1.6 | 0.0 | 0.00 | 0.00 | 0.36 | 58 | 1014.4 |
| 20260503183628 | 16 | 315 | 1.6 | 0.0 | 0.00 | 0.00 | 0.36 | 55 | 1014.4 |
| 20260503183128 | 16 | 323 | 1.6 | 0.0 | 0.00 | 0.00 | 0.36 | 56 | 1014.4 |
| 20260503182120 | 16 | 194 | 4.8 | 0.0 | 0.00 | 0.00 | 0.36 | 53 | 1014.5 |
| 20260503181124 | 16 | 210 | 4.8 | 0.0 | 0.00 | 0.00 | 0.36 | 53 | 1014.5 |
| 20260503180626 | 16 | 180 | 4.8 | 0.0 | 0.00 | 0.00 | 0.36 | 53 | 1014.5 |
| 20260503180128 | 16 | 155 | 4.8 | 0.0 | 0.00 | 0.00 | 0.36 | 52 | 1014.6 |
| 20260503175617 | 17 | 114 | 6.4 | 0.0 | 0.00 | 0.00 | 0.36 | 50 | 1014.6 |
| 20260503174624 | 17 | 171 | 3.2 | 0.0 | 0.00 | 0.00 | 0.36 | 50 | 1014.6 |
| 20260503174126 | 17 | 77 | 3.2 | 0.0 | 0.00 | 0.00 | 0.36 | 50 | 1014.6 |
| 20260503173627 | 17 | 317 | 3.2 | 0.0 | 0.00 | 0.00 | 0.36 | 51 | 1014.6 |
| 20260503173130 | 17 | 111 | 3.2 | 0.0 | 0.00 | 0.00 | 0.36 | 51 | 1014.6 |
| 20260503172613 | 17 | 153 | 3.2 | 0.0 | 0.00 | 0.00 | 0.36 | 49 | 1014.6 |
| 20260503172113 | 17 | 267 | 3.2 | 0.0 | 0.00 | 0.00 | 0.36 | 50 | 1014.7 |
| 20260503171613 | 17 | 236 | 4.8 | 0.0 | 0.00 | 0.00 | 0.36 | 49 | 1014.8 |
| 20260503171124 | 17 | 346 | 6.4 | 0.0 | 0.00 | 0.00 | 0.36 | 49 | 1014.7 |
| 20260503170626 | 17 | 190 | 6.4 | 0.0 | 0.00 | 0.00 | 0.36 | 50 | 1014.8 |
| 20260503170129 | 17 | 126 | 4.8 | 0.0 | 0.00 | 0.00 | 0.36 | 50 | 1014.7 |
| 20260503150615 | 17 | 150 | 4.8 | 0.0 | 0.00 | 0.00 | 0.36 | 55 | 1014.7 |
| 20260503150116 | 17 | 227 | 8.0 | 0.0 | 0.00 | 0.00 | 0.36 | 52 | 1014.8 |
| 20260503140122 | 18 | 127 | 8.0 | 0.0 | 0.00 | 0.00 | 0.36 | 54 | 1015.3 |
| 20260503131127 | 18 | 123 | 6.4 | 0.0 | 0.00 | 0.00 | 0.36 | 57 | 1015.6 |
| 20260503130112 | 17 | 240 | 8.0 | 0.0 | 0.00 | 0.00 | 0.36 | 55 | 1015.5 |
| 20260503110114 | 16 | 96 | 3.2 | 0.0 | 0.00 | 0.00 | 0.36 | 77 | 1016.6 |
| 20260503100127 | 13 | 119 | 3.2 | 0.0 | 0.00 | 0.00 | 0.36 | 86 | 1016.9 |